INMARSAT 5-F4 (42698 NORAD) Tracking and Keplerian Element Data

This shows tracking and keplerian element data for the satellite.

Feedback or suggestion? Click here.




ElementValue
Catalog42698
NameINMARSAT 5-F4
Epoch Orbit548
Epoch Day318.8197828
Epoch Year2018
RAAN179.922
Inclination0.0198
Eccentricity3.46E-05
Argument of Perigee88.4087
Mean Anonmoly91.694
Mean Motion1.00273038
Decay Rate7.6E-07
L11 42698U 17025A 18318.81978280 .00000076 00000-0 00000+0 0 9990
L22 42698 0.0198 179.9220 0000346 88.4087 91.6940 1.00273038 5487

Live tracking and technical data element details for INMARSAT 5-F4 (NORAD 42698). INMARSAT 5-F4 can be tracked NOW for your location showing map with azimuth and elevation plus other details from your city location.

Track the satellite on the map from your city or location and see movement details for azimuth, elevation, latitude, longitude, range, height, and movement on the map or in text.







IsCatalogInMostPopularTable: catalog: 42698, numindb: 167
Update: records affected: 1



GetName: 42698 INMARSAT 5-F4

Hit Count: updated at: Fri, 16 Nov 2018 09:56:14 GMT